TimeAKST,TemperatureF,Dew PointF,Humidity,Sea Level PressureIn,VisibilityMPH,Wind Direction,Wind SpeedMPH,Gust SpeedMPH,PrecipitationIn,Events,Conditions,WindDirDegrees,DateUTC
12:12 AM,44.6,42.8,93,30.05,4.0,SE,20.7,31.1,0.00,Rain,Light Rain,130,2013-01-17 09:12:00
12:30 AM,44.6,42.8,93,30.02,4.0,SE,23.0,31.1,0.02,Rain,Light Rain,130,2013-01-17 09:30:00
12:53 AM,45.0,43.0,93,30.04,3.0,SE,16.1,28.8,0.03,Rain,Light Rain,140,2013-01-17 09:53:00
1:07 AM,44.6,42.8,93,30.02,2.5,SE,19.6,29.9,0.00,Rain,Light Rain,130,2013-01-17 10:07:00
1:21 AM,44.6,42.8,93,30.01,3.0,SE,18.4,27.6,0.01,Rain,Light Rain,130,2013-01-17 10:21:00
1:32 AM,44.6,42.8,93,30.01,3.0,SE,16.1,27.6,0.02,Rain,Light Rain,140,2013-01-17 10:32:00
1:53 AM,44.1,42.1,93,30.01,2.5,SE,19.6,33.4,0.03,Rain,Light Rain,140,2013-01-17 10:53:00
3:25 AM,44.6,42.8,93,29.91,3.0,SE,29.9,43.7,0.06,Rain,Rain,140,2013-01-17 12:25:00
3:53 AM,44.1,41.0,89,29.93,9.0,SE,23.0,42.6,0.09,Rain,Light Rain,140,2013-01-17 12:53:00
4:53 AM,43.0,39.9,89,29.90,4.0,SE,21.9,39.1,0.22,Rain,Rain,130,2013-01-17 13:53:00
5:03 AM,42.8,41.0,93,29.90,4.0,SE,17.3,40.3,0.04,Rain,Rain,140,2013-01-17 14:03:00
5:11 AM,42.8,41.0,93,29.90,4.0,SE,20.7,34.5,0.06,Rain,Rain,140,2013-01-17 14:11:00
5:36 AM,42.8,41.0,93,29.87,2.5,SE,21.9,36.8,0.14,Rain,Light Rain,140,2013-01-17 14:36:00
5:43 AM,42.8,41.0,93,29.87,2.0,SE,23.0,33.4,0.16,Rain,Rain,140,2013-01-17 14:43:00
5:53 AM,43.0,41.0,93,29.87,2.5,SE,20.7,36.8,0.18,Rain,Light Rain,140,2013-01-17 14:53:00
5:59 AM,42.8,41.0,93,29.85,2.5,SE,23.0,35.7,0.01,Rain,Light Rain,130,2013-01-17 14:59:00
6:09 AM,42.8,41.0,93,29.85,3.0,SE,24.2,36.8,0.02,Rain,Light Rain,140,2013-01-17 15:09:00
6:53 AM,43.0,41.0,93,29.87,4.0,SE,17.3,27.6,0.08,Rain,Light Rain,130,2013-01-17 15:53:00
7:53 AM,44.6,41.0,87,29.88,4.0,SE,19.6,31.1,N/A,Rain,Light Rain,130,2013-01-17 16:53:00
8:53 AM,44.1,42.1,93,29.88,4.0,SE,17.3,-,0.03,Rain,Light Rain,130,2013-01-17 17:53:00
9:53 AM,44.1,42.1,93,29.90,3.0,SE,16.1,-,0.03,Rain,Light Rain,130,2013-01-17 18:53:00
10:53 AM,44.1,42.1,93,29.92,6.0,SE,11.5,-,0.03,Rain,Light Rain,140,2013-01-17 19:53:00
11:53 AM,44.1,42.1,93,29.92,10.0,SE,11.5,-,0.00,,Overcast,130,2013-01-17 20:53:00
12:53 PM,44.1,42.1,93,29.93,10.0,SE,15.0,-,0.00,Rain,Light Rain,130,2013-01-17 21:53:00
1:53 PM,44.1,41.0,89,29.92,10.0,SE,12.7,-,0.00,,Overcast,130,2013-01-17 22:53:00
2:53 PM,43.0,41.0,93,29.92,10.0,SE,12.7,-,N/A,,Overcast,130,2013-01-17 23:53:00
3:53 PM,43.0,41.0,93,29.91,10.0,SE,12.7,-,N/A,,Overcast,130,2013-01-18 00:53:00
4:53 PM,43.0,42.1,97,29.90,10.0,SE,11.5,-,0.00,,Overcast,130,2013-01-18 01:53:00
5:53 PM,43.0,41.0,93,29.90,8.0,SE,12.7,-,0.00,,Overcast,130,2013-01-18 02:53:00
6:53 PM,43.0,41.0,93,29.91,10.0,SE,10.4,-,0.02,Rain,Light Rain,130,2013-01-18 03:53:00
7:53 PM,42.1,41.0,96,29.93,10.0,SE,8.1,-,0.02,Rain,Light Rain,130,2013-01-18 04:53:00
8:53 PM,42.1,39.9,92,29.94,10.0,SE,8.1,-,0.00,Rain,Light Rain,130,2013-01-18 05:53:00
9:03 PM,42.8,41.0,93,29.94,10.0,SE,8.1,-,0.00,,Overcast,130,2013-01-18 06:03:00
9:16 PM,42.8,41.0,93,29.94,10.0,SE,8.1,-,0.00,Rain,Light Rain,130,2013-01-18 06:16:00
9:53 PM,42.1,39.9,92,29.96,10.0,SE,5.8,-,0.01,,Overcast,140,2013-01-18 06:53:00
10:12 PM,42.8,39.2,87,29.96,9.0,SE,3.5,-,N/A,,Overcast,140,2013-01-18 07:12:00
10:21 PM,42.8,39.2,87,29.96,5.0,SE,4.6,-,N/A,,Overcast,140,2013-01-18 07:21:00
10:53 PM,41.0,39.9,96,29.98,5.0,SE,3.5,-,0.00,,Overcast,140,2013-01-18 07:53:00
11:34 PM,41.0,39.2,93,29.99,9.0,SSE,3.5,-,0.00,,Overcast,150,2013-01-18 08:34:00
11:53 PM,41.0,39.9,96,30.00,7.0,SE,4.6,-,0.00,,Overcast,140,2013-01-18 08:53:00